Prestwick, United Kingdom

5:34 PM GMT on December 18, 2017 (GMT +0000)
Prestwick

Weather History for EGPK - November, 2011

Change the Weather History Date:

Thursday, November 3, 2011

  Actual Average Record
Temperature  
Mean Temperature 56 °F -  
Max Temperature 59 °F 48 °F 60 °F (2005)
Min Temperature 53 °F 38 °F 28 °F (2008)
Degree Days  
Heating Degree Days 9    
Growing Degree Days 6 (Base 50)    
Moisture  
Dew Point 52 °F    
Average Humidity 84    
Maximum Humidity 94    
Minimum Humidity 77    
Precipitation  
Precipitation 0.00 in - - ()
Sea Level Pressure  
Sea Level Pressure 29.15 in    
Wind  
Wind Speed 12 mph ()    
Max Wind Speed 18 mph    
Max Gust Speed -    
Visibility 6.2 miles    
Events Rain    
Averages and records for this station are not official NWS values.
T = Trace of Precipitation, MM = Missing Value Source: Averaged Metar Reports

Daily Weather History Graph

Daily Weather History Graph

Search for Another Location

Airport or City:

Trip Planner

Search our weather history database for the weather conditions in past years. The results will help you decide how hot, cold, wet, or windy it might be!

Date:

Astronomy

Nov. 03, 2011 Rise Set
Actual Time 7:26 AM GMT 4:35 PM GMT
Civil Twilight 6:47 AM GMT 5:15 PM GMT
Nautical Twilight 6:03 AM GMT 5:58 PM GMT
Astronomical Twilight 5:21 AM GMT 6:41 PM GMT
Moon 1:57 PM GMT (11/3) No Moon Set
Length of Visible Light 10h 27m
Length of Day
9h 09m
First Quarter, 58% of the Moon is Illuminated
Nov 3
First Quarter
Nov 10
Full
Nov 18
Last Quarter
Nov 25
New
Dec 2
First Quarter

Hourly Weather History & Observations

Time (GMT) Temp. Dew Point Humidity Pressure Visibility Wind Dir Wind Speed Gust Speed Precip Events Conditions
12:50 AM 53.6 °F 50.0 °F 88% 29.21 in 6.2 mi ESE 15.0 mph - N/A Rain Light Rain
1:50 AM 55.4 °F 51.8 °F 88% 29.21 in 6.2 mi ESE 13.8 mph - N/A   Mostly Cloudy
2:50 AM 55.4 °F 51.8 °F 88% 29.18 in 6.2 mi ESE 18.4 mph - N/A   Mostly Cloudy
3:20 AM 57.2 °F 51.8 °F 82% 29.18 in 6.2 mi SE 17.3 mph - N/A   Mostly Cloudy
3:50 AM 55.4 °F 53.6 °F 94% 29.18 in 6.2 mi East 11.5 mph - N/A Rain Light Rain
4:20 AM 55.4 °F 53.6 °F 94% 29.18 in 4.3 mi ESE 10.4 mph - N/A Rain Light Rain
4:50 AM 57.2 °F 53.6 °F 88% 29.18 in 6.2 mi ESE 12.7 mph - N/A Rain Light Rain
5:50 AM 57.2 °F 53.6 °F 88% 29.18 in 6.2 mi SE 15.0 mph - N/A Rain Light Rain
6:20 AM 57.2 °F 53.6 °F 88% 29.18 in 6.2 mi ESE 15.0 mph - N/A Rain Light Rain
6:50 AM 57.2 °F 53.6 °F 88% 29.18 in 6.2 mi ESE 15.0 mph - N/A   Mostly Cloudy
7:20 AM 57.2 °F 53.6 °F 88% 29.15 in 6.2 mi ESE 13.8 mph - N/A Rain Light Rain
7:50 AM 57.2 °F 53.6 °F 88% 29.18 in 6.2 mi SE 13.8 mph - N/A Rain Light Rain Showers
8:20 AM 57.2 °F 53.6 °F 88% 29.18 in 6.2 mi ESE 11.5 mph - N/A   Mostly Cloudy
8:50 AM 57.2 °F 53.6 °F 88% 29.18 in 6.2 mi ESE 5.8 mph - N/A   Scattered Clouds
9:20 AM 59.0 °F 53.6 °F 82% 29.18 in 6.2 mi East 8.1 mph - N/A   Partly Cloudy
9:50 AM 59.0 °F 53.6 °F 82% 29.18 in 6.2 mi ESE 8.1 mph - N/A   Partly Cloudy
10:20 AM 59.0 °F 53.6 °F 82% 29.15 in 6.2 mi SE 13.8 mph - N/A   Partly Cloudy
10:50 AM 59.0 °F 53.6 °F 82% 29.18 in 6.2 mi SE 18.4 mph - N/A   Partly Cloudy
11:20 AM 59.0 °F 53.6 °F 82% 29.15 in 6.2 mi SE 15.0 mph - N/A   Partly Cloudy
11:50 AM 59.0 °F 53.6 °F 82% 29.15 in 6.2 mi SE 12.7 mph - N/A   Partly Cloudy
12:20 PM 59.0 °F 51.8 °F 77% 29.15 in 6.2 mi SE 16.1 mph - N/A   Partly Cloudy
12:50 PM 59.0 °F 53.6 °F 82% 29.15 in 6.2 mi SE 13.8 mph - N/A   Partly Cloudy
1:20 PM 59.0 °F 53.6 °F 82% 29.15 in 6.2 mi SE 17.3 mph - N/A Rain Light Rain Showers
1:50 PM 59.0 °F 53.6 °F 82% 29.12 in 6.2 mi SE 17.3 mph - N/A Rain Light Rain Showers
2:20 PM 59.0 °F 53.6 °F 82% 29.12 in 6.2 mi SE 15.0 mph - N/A   Scattered Clouds
2:50 PM 59.0 °F 51.8 °F 77% 29.12 in 6.2 mi SE 17.3 mph - N/A   Scattered Clouds
3:20 PM 59.0 °F 51.8 °F 77% 29.12 in 6.2 mi SE 15.0 mph - N/A   Scattered Clouds
3:50 PM 59.0 °F 51.8 °F 77% 29.12 in 6.2 mi SE 15.0 mph - N/A   Scattered Clouds
4:20 PM 59.0 °F 51.8 °F 77% 29.12 in 6.2 mi SE 15.0 mph - N/A   Scattered Clouds
4:50 PM 59.0 °F 51.8 °F 77% 29.09 in 6.2 mi SE 11.5 mph - N/A   Scattered Clouds
5:20 PM 59.0 °F 51.8 °F 77% 29.09 in 6.2 mi SE 11.5 mph - N/A   Scattered Clouds
5:50 PM 57.2 °F 51.8 °F 82% 29.09 in 6.2 mi ESE 15.0 mph - N/A Rain Light Rain
6:20 PM 57.2 °F 51.8 °F 82% 29.12 in 6.2 mi SE 12.7 mph - N/A   Scattered Clouds
6:50 PM 57.2 °F 51.8 °F 82% 29.12 in 6.2 mi SE 10.4 mph - N/A   Scattered Clouds
7:20 PM 57.2 °F 50.0 °F 77% 29.12 in 6.2 mi SE 8.1 mph - N/A   Partly Cloudy
7:50 PM 55.4 °F 50.0 °F 82% 29.15 in 6.2 mi SSE 8.1 mph - N/A   Partly Cloudy
8:20 PM 53.6 °F 48.2 °F 82% 29.15 in 6.2 mi SSE 6.9 mph - N/A   Partly Cloudy
8:50 PM 53.6 °F 48.2 °F 82% 29.15 in 6.2 mi Variable 2.3 mph - N/A   Partly Cloudy
9:20 PM 53.6 °F 50.0 °F 88% 29.15 in 6.2 mi ESE 4.6 mph - N/A Rain Light Rain
9:50 PM 53.6 °F 50.0 °F 88% 29.15 in 6.2 mi ESE 8.1 mph - N/A   Partly Cloudy
10:20 PM 53.6 °F 50.0 °F 88% 29.15 in 6.2 mi ESE 8.1 mph - N/A   Scattered Clouds
10:50 PM 53.6 °F 50.0 °F 88% 29.15 in 6.2 mi East 5.8 mph - N/A   Scattered Clouds
11:20 PM 55.4 °F 50.0 °F 82% 29.15 in 6.2 mi ESE 9.2 mph - N/A   Scattered Clouds
11:50 PM 53.6 °F 50.0 °F 88% 29.15 in 6.2 mi SE 6.9 mph - N/A   Scattered Clouds